N41643 KPDK-

Flight info

Callsign N41643
Flight time N/A
Altitude VFR
Route
Aircraft

Departure

Time 2026-04-24 23:26
Airport DeKalb Peachtree Airport (KPDK)

Arrival

Time N/A
Airport -
Time Latitude Longitude Altitude Speed Heading
2026-04-24 23:25 33.85107 -84.31121 1518 ft 83 kts 233°
2026-04-24 23:25 33.85218 -84.31784 1601 ft 90 kts 298°
2026-04-24 23:26 33.85848 -84.31975 1725 ft 112 kts 21°
2026-04-24 23:26 33.86641 -84.31604 1672 ft 124 kts 12°
2026-04-24 23:26 33.87449 -84.31270 1693 ft 125 kts 18°
2026-04-24 23:26 33.88253 -84.30939 1647 ft 119 kts 16°
2026-04-24 23:27 33.89030 -84.30708 1496 ft 107 kts
2026-04-24 23:27 33.89726 -84.30487 1475 ft 96 kts 10°
2026-04-24 23:27 33.89910 -84.29951 1378 ft 88 kts 166°
2026-04-24 23:27 33.89237 -84.29777 1223 ft 106 kts 177°
2026-04-24 23:28 33.88515 -84.29831 1123 ft 101 kts 198°
2026-04-24 23:28 33.87914 -84.30098 1058 ft 80 kts 205°
2026-04-24 23:28 33.87502 -84.30297 999 ft 46 kts 208°
2026-04-24 23:28 33.87212 -84.30427 998 ft 59 kts 197°
2026-04-24 23:29 33.86758 -84.30647 1073 ft 77 kts 208°
2026-04-24 23:29 33.86212 -84.30864 1193 ft 87 kts 201°
2026-04-24 23:29 33.85623 -84.31096 1334 ft 90 kts 204°
2026-04-24 23:29 33.85032 -84.31363 1491 ft 90 kts 205°
2026-04-24 23:30 33.84448 -84.31613 1644 ft 90 kts 206°
2026-04-24 23:30 33.84100 -84.32178 1725 ft 98 kts 272°
2026-04-24 23:30 33.84491 -84.32855 1861 ft 108 kts 319°
2026-04-24 23:30 33.85251 -84.33140 1937 ft 117 kts 355°
2026-04-24 23:31 33.86025 -84.32719 1946 ft 128 kts 26°
2026-04-24 23:31 33.86769 -84.32163 2075 ft 124 kts 29°
2026-04-24 23:31 33.87505 -84.31620 2088 ft 124 kts 28°
2026-04-24 23:31 33.88308 -84.31165 2061 ft 131 kts 13°
2026-04-24 23:32 33.89172 -84.30853 2169 ft 127 kts 13°
2026-04-24 23:32 33.90040 -84.30535 2203 ft 132 kts 14°
2026-04-24 23:32 33.90875 -84.30173 2198 ft 125 kts 34°
2026-04-24 23:32 33.91003 -84.29231 2121 ft 112 kts 118°
2026-04-24 23:33 33.90383 -84.29010 1847 ft 101 kts 198°
2026-04-24 23:33 33.89930 -84.29161 1632 ft 101 kts 203°
2026-04-24 23:33 33.89073 -84.29579 1300 ft 93 kts 210°
2026-04-24 23:33 33.88494 -84.29826 1151 ft 82 kts 207°
2026-04-24 23:34 33.88068 -84.30030 1045 ft 57 kts 213°
2026-04-24 23:34 33.87726 -84.30183 998 ft 47 kts 198°
2026-04-24 23:34 33.87317 -84.30386 999 ft 77 kts 197°
2026-04-24 23:34 33.86777 -84.30609 1097 ft 86 kts 212°
2026-04-24 23:35 33.86226 -84.30942 1251 ft 91 kts 212°
2026-04-24 23:35 33.85636 -84.31309 1331 ft 96 kts 210°
2026-04-24 23:35 33.85140 -84.31827 1423 ft 96 kts 265°
2026-04-24 23:35 33.85714 -84.32223 1513 ft 116 kts 14°
2026-04-24 23:36 33.86475 -84.31840 1625 ft 117 kts 19°
2026-04-24 23:36 33.87228 -84.31455 1675 ft 122 kts 21°
2026-04-24 23:36 33.87994 -84.31059 1741 ft 120 kts 17°
2026-04-24 23:36 33.88762 -84.30701 1852 ft 116 kts 18°
2026-04-24 23:37 33.89495 -84.30300 1940 ft 117 kts 22°
2026-04-24 23:37 33.90039 -84.29658 2033 ft 109 kts 90°
2026-04-24 23:37 33.89009 -84.29510 1542 ft 108 kts 219°
2026-04-24 23:38 33.88325 -84.29874 1227 ft 99 kts 206°
2026-04-24 23:38 33.87768 -84.30162 1035 ft 78 kts 206°
2026-04-24 23:38 33.87379 -84.30347 998 ft 38 kts 200°
2026-04-24 23:38 33.87217 -84.30422 998 ft 21 kts 199°
2026-04-24 23:39 33.87195 -84.30501 998 ft 10 kts 349°
2026-04-24 23:39 33.87247 -84.30489 999 ft 6 kts 18°
2026-04-24 23:39 33.87280 -84.30475 1000 ft 8 kts 21°
2026-04-24 23:39 33.87357 -84.30481 1002 ft 14 kts 276°
2026-04-24 23:40 33.87362 -84.30507 1002 ft 0 kts 286°